Stations météo

réclame
Mon MeteoGroup
Gaddede A, Suède (2219): Température de l'air & dewpoint: 18.10.2018 00:00:00 - 24.10.2018 00:00:00 (CEST)Gaddede A, Suède (2219): Vitesse du vent & gusts: 18.10.2018 00:00:00 - 24.10.2018 00:00:00 (CEST)Gaddede A, Suède (2219): Direction du vent: 18.10.2018 00:00:00 - 24.10.2018 00:00:00 (CEST)Gaddede A, Suède (2219): reduced air pressure: 18.10.2018 00:00:00 - 24.10.2018 00:00:00 (CEST)Gaddede A, Suède (2219): visibility: 18.10.2018 00:00:00 - 24.10.2018 00:00:00 (CEST)Gaddede A, Suède (2219): Quantités de précipitations: 18.10.2018 00:00:00 - 24.10.2018 00:00:00 (CEST)
Date & Time tt [°C] td [°C] ff [km/h] ff [knt] fx [km/h] fx [knt] dd ppp [hPa] vv [km] rr [mm]
24.10.2018 00:00:00 -0,9 -1,0 10 6 22 12 W 997,2 50 0,0
23.10.2018 23:00:00 -1,2 -1,3 9 5 16 9 W 997,0 50 0,0
23.10.2018 22:00:00 -1,5 -1,8 7 4 14 8 WNW 996,7 23 0,0
23.10.2018 21:00:00 -1,7 -2,0 9 5 18 10 W 996,0 50 -
23.10.2018 20:00:00 -1,3 -1,6 9 5 26 14 WNW 995,4 48 0,0
23.10.2018 19:00:00 -1,3 -1,4 7 4 24 13 W 995,0 10 0,0
23.10.2018 18:00:00 -1,0 -1,1 8 4 28 15 W 994,5 36 0,0
23.10.2018 17:00:00 -0,5 -0,6 11 6 29 16 WNW 993,4 46 -
23.10.2018 16:00:00 0,0 -0,1 15 8 32 18 W 992,8 20 0,0
23.10.2018 15:00:00 0,1 0,0 13 7 35 19 W 991,7 5 -
23.10.2018 14:00:00 0,2 0,1 11 6 23 12 W 991,4 4,5 -
23.10.2018 13:00:00 -0,1 -0,1 10 6 23 13 W 991,2 0,7 -
23.10.2018 12:00:00 -0,2 -0,5 9 5 26 14 W 991,0 2,4 -
23.10.2018 11:00:00 -0,2 -1,3 3 1 8 4 S 990,8 48 -
23.10.2018 10:00:00 -0,9 -1,7 2 1 6 4 WSW 991,2 24 -
23.10.2018 09:00:00 -1,9 -2,7 4 2 8 5 ENE 991,6 47 -
23.10.2018 08:00:00 -2,6 -3,0 4 2 8 5 E 991,7 42 -
23.10.2018 07:00:00 -1,6 -2,4 6 3 12 7 ENE 991,9 48 -
23.10.2018 06:00:00 -1,8 -2,4 4 2 11 6 ENE 992,6 46 -
23.10.2018 05:00:00 -1,0 -2,4 8 4 14 7 ENE 992,9 50 -
23.10.2018 04:00:00 -1,2 -2,5 10 5 15 8 ENE 993,7 43 -
23.10.2018 03:00:00 -1,2 -2,2 9 5 17 9 E 994,4 41 -
23.10.2018 02:00:00 -1,6 -2,0 7 4 11 6 E 995,5 21 -
23.10.2018 01:00:00 -1,5 -1,8 2 1 6 3 E 996,4 15 -
23.10.2018 00:00:00 -1,1 -1,5 5 3 8 4 E 997,9 13 -
22.10.2018 23:00:00 -1,2 -1,5 3 2 19 11 W 998,8 11 -
22.10.2018 22:00:00 -0,8 -1,1 8 4 27 14 WNW 999,6 10 -
22.10.2018 21:00:00 -1,0 -1,1 13 7 27 15 W 1000,3 14 -
22.10.2018 20:00:00 -0,6 -0,7 16 8 34 18 W 1000,9 16 0,0
22.10.2018 19:00:00 -0,6 -0,6 15 8 39 21 W 1001,7 13 0,0
22.10.2018 18:00:00 -0,5 -0,6 14 8 35 19 W 1002,3 14 0,0
22.10.2018 17:00:00 -0,2 -0,3 17 9 42 23 W 1002,6 12 0,0
22.10.2018 16:00:00 0,0 0,0 14 8 35 19 WNW 1002,1 1,1 -
22.10.2018 15:00:00 0,2 0,2 16 9 46 25 W 1001,6 6 0,0
22.10.2018 14:00:00 0,1 0,1 15 8 34 18 W 1001,0 6 -
22.10.2018 13:00:00 0,0 0,0 12 7 26 14 W 1000,4 0,3 -
22.10.2018 12:00:00 0,4 0,3 12 7 35 19 W 1000,6 7 0,0
22.10.2018 11:00:00 0,0 0,0 16 8 35 19 W 1001,0 1,9 -
22.10.2018 10:00:00 -0,3 -0,3 17 9 55 30 W 1000,6 1,5 -
22.10.2018 09:00:00 -0,1 -0,2 18 10 42 23 W 1000,5 0,7 -
22.10.2018 08:00:00 0,2 -0,2 15 8 34 19 W 1000,4 12 0,0
22.10.2018 07:00:00 0,1 -0,5 16 9 44 24 W 1000,4 13 -
22.10.2018 06:00:00 0,5 -0,1 17 9 46 25 W 1000,5 8 0,0
22.10.2018 05:00:00 0,7 0,6 21 11 44 24 W 1001,2 15 -
22.10.2018 04:00:00 0,6 0,3 14 7 30 16 W 1001,9 6 0,0
22.10.2018 03:00:00 0,4 0,3 11 6 29 16 W 1002,4 11 0,0
22.10.2018 02:00:00 0,0 -0,1 11 6 27 14 NW 1002,9 1,5 -
22.10.2018 01:00:00 0,6 0,3 8 5 15 8 WNW 1003,0 7 -
22.10.2018 00:00:00 0,8 -0,2 7 4 29 16 WNW 1003,0 26 0,0
21.10.2018 23:00:00 1,8 1,5 9 5 28 15 WNW 1002,8 28 -
21.10.2018 22:00:00 2,0 1,7 13 7 40 21 WNW 1002,9 18 0,0
21.10.2018 21:00:00 2,7 2,3 11 6 34 18 WNW 1003,1 16 -
21.10.2018 20:00:00 3,4 3,3 10 5 26 14 WNW 1003,3 27 0,0
21.10.2018 19:00:00 3,3 3,0 9 5 23 12 W 1003,9 15 -
21.10.2018 18:00:00 2,8 2,4 12 7 43 23 NNW 1004,4 8 -
21.10.2018 17:00:00 5,1 3,0 16 9 45 25 W 1003,6 15 -
21.10.2018 16:00:00 5,1 3,1 22 12 46 25 W 1004,4 13 -
21.10.2018 15:00:00 5,4 3,9 21 11 42 23 WSW 1004,9 16 0,0
21.10.2018 14:00:00 5,1 4,1 20 11 54 29 W 1005,7 18 -
21.10.2018 13:00:00 6,2 3,0 22 12 46 25 W 1006,1 14 -
21.10.2018 12:00:00 6,1 3,9 16 8 42 23 W 1006,4 13 -
21.10.2018 11:00:00 5,8 4,3 16 9 42 23 W 1006,9 14 -
21.10.2018 10:00:00 5,3 4,0 17 9 40 21 W 1006,9 15 -
21.10.2018 09:00:00 5,7 5,3 18 10 40 22 W 1006,9 50 -
21.10.2018 08:00:00 6,1 6,0 16 9 40 21 W 1006,2 10 -
21.10.2018 07:00:00 5,7 5,6 9 5 37 20 W 1006,8 43 -
21.10.2018 06:00:00 5,3 5,2 8 4 15 8 SSW 1007,8 3,9 -
21.10.2018 05:00:00 4,2 3,6 8 4 18 10 E 1008,7 8 -
21.10.2018 04:00:00 4,1 2,8 12 7 28 15 ESE 1008,9 14 -
21.10.2018 03:00:00 3,8 2,3 11 6 25 13 ESE 1009,7 50 -
21.10.2018 02:00:00 3,8 1,7 9 5 24 13 ESE 1010,8 28 -
21.10.2018 01:00:00 4,4 1,3 13 7 31 17 ESE 1011,9 37 -
21.10.2018 00:00:00 4,3 1,5 13 7 24 13 ESE 1013,2 50 -
20.10.2018 23:00:00 4,3 1,7 10 6 24 13 E 1014,5 50 -
20.10.2018 22:00:00 3,7 2,1 10 6 18 10 E 1015,6 48 -
20.10.2018 21:00:00 3,7 2,4 9 5 16 8 ESE 1016,3 23 -
20.10.2018 20:00:00 3,5 2,8 5 3 13 7 ESE 1017,6 21 -
20.10.2018 19:00:00 3,3 2,9 3 1 8 5 S 1018,4 15 -
20.10.2018 18:00:00 3,5 3,2 3 2 14 7 E 1018,9 9 -
20.10.2018 17:00:00 4,1 2,9 7 4 16 9 W 1019,1 17 0,0
20.10.2018 16:00:00 4,7 3,7 4 2 13 7 W 1019,2 43 -
20.10.2018 15:00:00 4,8 4,4 5 3 19 11 W 1019,6 34 0,0
20.10.2018 14:00:00 4,5 3,8 10 5 23 13 W 1019,4 35 -
20.10.2018 13:00:00 4,4 4,3 9 5 19 11 W 1019,7 50 -
20.10.2018 12:00:00 4,5 4,4 9 5 17 9 W 1019,3 25 -
20.10.2018 11:00:00 3,8 3,7 5 3 15 8 W 1019,1 50 0,0
20.10.2018 10:00:00 3,4 3,3 7 4 16 9 W 1018,7 17 -
20.10.2018 09:00:00 3,1 2,8 10 5 21 11 W 1018,4 41 -
20.10.2018 08:00:00 3,1 2,8 6 4 16 8 W 1018,0 50 -
20.10.2018 07:00:00 3,1 3,0 6 3 13 7 W 1017,9 38 -
20.10.2018 06:00:00 2,9 2,8 3 1 6 3 E 1017,5 50 0,0
20.10.2018 05:00:00 2,8 2,7 2 1 5 3 E 1017,4 46 0,0
20.10.2018 04:00:00 3,3 3,0 2 1 9 5 NE 1017,2 39 -
20.10.2018 03:00:00 3,6 3,2 5 3 10 5 ENE 1017,3 16 -
20.10.2018 02:00:00 3,7 3,3 1 1 12 7 SE 1017,4 12 -
20.10.2018 01:00:00 3,8 3,2 7 4 13 7 E 1017,4 47 -
20.10.2018 00:00:00 3,8 3,4 4 2 11 6 E 1017,6 50 -
19.10.2018 23:00:00 3,8 3,2 6 3 12 6 E 1017,8 36 -
19.10.2018 22:00:00 3,9 3,3 7 4 12 6 E 1018,0 50 0,0
19.10.2018 21:00:00 3,7 3,6 4 2 5 3 E 1018,4 33 -
19.10.2018 20:00:00 3,8 3,7 4 2 5 3 E 1018,5 13 -
19.10.2018 19:00:00 4,0 3,7 2 1 6 3 NW 1018,5 14 -
19.10.2018 18:00:00 3,8 3,4 3 1 11 6 NW 1018,5 14 -
19.10.2018 17:00:00 4,1 3,8 7 4 14 8 WNW 1018,7 13 -
19.10.2018 16:00:00 4,4 4,0 8 5 24 13 WNW 1018,8 31 -
19.10.2018 15:00:00 4,6 4,0 10 6 21 12 W 1018,7 39 -
19.10.2018 14:00:00 4,5 3,6 9 5 19 10 W 1019,2 50 0,0
19.10.2018 13:00:00 4,4 3,7 10 6 23 12 W 1019,1 50 -
19.10.2018 12:00:00 4,1 3,7 6 4 18 10 W 1019,2 50 -
19.10.2018 11:00:00 3,6 3,5 7 4 24 13 W 1019,1 8 0,0
19.10.2018 10:00:00 3,2 3,1 11 6 23 12 W 1018,9 15 -
19.10.2018 09:00:00 2,7 2,6 8 4 19 10 W 1018,9 9 -
19.10.2018 08:00:00 2,9 1,7 8 4 25 14 WNW 1018,3 14 -
19.10.2018 07:00:00 2,7 1,1 13 7 29 16 NW 1017,9 16 -
19.10.2018 06:00:00 2,3 1,6 14 8 37 20 W 1017,4 17 0,0
19.10.2018 05:00:00 2,9 2,0 19 11 40 22 W 1017,0 14 0,0
19.10.2018 04:00:00 2,6 1,6 13 7 31 17 W 1017,2 21 0,0
19.10.2018 03:00:00 2,5 1,3 18 10 36 19 W 1016,6 26 -
19.10.2018 02:00:00 2,6 1,6 16 9 48 26 W 1016,4 20 -
19.10.2018 01:00:00 2,6 1,8 22 12 48 26 W 1015,5 19 -
19.10.2018 00:00:00 2,6 2,3 22 12 46 25 W 1015,4 11 0,0
18.10.2018 23:00:00 2,7 2,6 18 10 50 27 W 1015,2 9 0,0
18.10.2018 22:00:00 2,7 2,6 23 13 52 28 W 1014,2 15 -
18.10.2018 21:00:00 2,9 2,5 24 13 53 28 W 1014,2 27 0,0
18.10.2018 20:00:00 2,8 2,5 22 12 58 32 W 1014,3 11 0,0
18.10.2018 19:00:00 3,1 2,7 20 11 46 25 W 1014,0 20 0,0
18.10.2018 18:00:00 3,3 2,7 23 12 54 29 W 1013,2 24 -
18.10.2018 17:00:00 3,6 3,3 18 10 46 25 W 1013,0 16 0,0
18.10.2018 16:00:00 3,8 3,7 16 9 42 23 W 1012,2 21 -
18.10.2018 15:00:00 3,3 3,2 14 8 39 21 W 1012,0 23 -
18.10.2018 14:00:00 3,7 3,1 19 10 43 23 W 1011,6 23 -
18.10.2018 13:00:00 3,1 2,5 14 7 49 26 W 1011,6 21 -
18.10.2018 12:00:00 3,8 2,2 16 8 52 28 W 1011,1 35 0,0
18.10.2018 11:00:00 3,5 1,4 12 6 44 24 W 1011,3 34 -
18.10.2018 10:00:00 3,0 1,8 15 8 38 20 W 1011,7 41 0,0
18.10.2018 09:00:00 2,8 1,6 13 7 27 15 W 1011,8 14 0,0
18.10.2018 08:00:00 3,3 1,5 10 5 28 15 W 1011,4 33 -
18.10.2018 07:00:00 3,4 2,2 13 7 29 16 W 1010,9 27 -
18.10.2018 06:00:00 3,4 2,4 8 5 29 16 W 1011,0 26 0,0
18.10.2018 05:00:00 3,5 2,3 14 7 34 18 W 1011,2 18 0,0
18.10.2018 04:00:00 3,5 2,2 12 6 28 15 W 1011,4 26 0,0
18.10.2018 03:00:00 3,4 2,5 11 6 32 18 W 1011,8 23 -
18.10.2018 02:00:00 2,9 2,2 12 6 34 18 W 1012,0 15 0,0
18.10.2018 01:00:00 3,3 3,0 7 4 18 10 W 1011,8 18 -
18.10.2018 00:00:00 3,7 3,0 9 5 24 13 W 1011,7 15 -

tt = Température de l'air
td = dewpoint
ff = Vitesse du vent
fx = gusts
dd = Direction du vent
ppp = reduced air pressure
vv = visibility
rr = Quantités de précipitations

stations d'obs. à proximité